TimeEST,TemperatureF,Dew PointF,Humidity,Sea Level PressureIn,VisibilityMPH,Wind Direction,Wind SpeedMPH,Gust SpeedMPH,PrecipitationIn,Events,Conditions,WindDirDegrees,DateUTC
12:54 AM,48.9,30.9,50,30.14,10.0,SSW,4.6,-,N/A,,Clear,210,2011-11-09 05:54:00
1:54 AM,48.9,30.9,50,30.14,10.0,South,5.8,-,N/A,,Clear,190,2011-11-09 06:54:00
2:54 AM,48.9,30.0,48,30.12,10.0,South,3.5,-,N/A,,Clear,190,2011-11-09 07:54:00
3:54 AM,46.9,30.0,52,30.11,10.0,South,5.8,-,N/A,,Clear,170,2011-11-09 08:54:00
4:54 AM,46.0,30.0,54,30.12,10.0,South,4.6,-,N/A,,Clear,190,2011-11-09 09:54:00
5:54 AM,46.0,28.9,51,30.12,10.0,SSW,4.6,-,N/A,,Clear,210,2011-11-09 10:54:00
6:54 AM,43.0,28.9,58,30.12,10.0,SSE,6.9,-,N/A,,Clear,160,2011-11-09 11:54:00
7:54 AM,46.0,30.0,54,30.13,10.0,South,5.8,-,N/A,,Clear,180,2011-11-09 12:54:00
8:54 AM,50.0,32.0,50,30.09,10.0,South,8.1,-,N/A,,Clear,180,2011-11-09 13:54:00
9:54 AM,55.9,32.0,40,30.08,10.0,SSE,9.2,-,N/A,,Clear,160,2011-11-09 14:54:00
10:54 AM,59.0,33.1,38,30.06,10.0,South,5.8,-,N/A,,Clear,180,2011-11-09 15:54:00
11:54 AM,61.0,33.1,35,30.02,10.0,SSE,6.9,-,N/A,,Clear,150,2011-11-09 16:54:00
12:54 PM,61.0,32.0,34,29.99,10.0,South,16.1,20.7,N/A,,Clear,170,2011-11-09 17:54:00
1:54 PM,62.6,33.8,34,29.97,10.0,SSE,10.4,-,N/A,,Clear,150,2011-11-09 18:54:00
2:54 PM,61.0,32.0,34,29.94,10.0,SSE,11.5,18.4,N/A,,Clear,150,2011-11-09 19:54:00
3:54 PM,57.9,33.1,39,29.94,10.0,SSE,11.5,18.4,N/A,,Clear,150,2011-11-09 20:54:00
4:54 PM,55.0,36.0,49,29.92,10.0,SE,9.2,-,N/A,,Clear,130,2011-11-09 21:54:00
5:54 PM,53.6,37.4,54,29.91,10.0,SE,9.2,18.4,N/A,,Clear,140,2011-11-09 22:54:00
6:54 PM,53.1,39.0,59,29.93,10.0,SE,10.4,-,N/A,,Clear,130,2011-11-09 23:54:00
7:54 PM,53.1,39.0,59,29.92,10.0,South,9.2,-,N/A,,Partly Cloudy,190,2011-11-10 00:54:00
8:54 PM,51.8,39.2,62,29.92,10.0,South,8.1,-,N/A,,Overcast,190,2011-11-10 01:54:00
9:54 PM,52.0,39.0,61,29.92,10.0,SSW,4.6,-,N/A,,Overcast,200,2011-11-10 02:54:00
10:54 PM,53.1,39.0,59,29.91,10.0,South,5.8,-,N/A,,Overcast,190,2011-11-10 03:54:00
11:04 PM,53.6,39.2,58,29.91,10.0,South,5.8,-,N/A,,Overcast,190,2011-11-10 04:04:00
11:54 PM,50.0,45.0,83,29.90,6.0,SSW,8.1,-,0.05,Rain,Rain,210,2011-11-10 04:54:00